AddedLatest Added eBooks:

  1. 2021-03-28The Aging Games: How to Come Out a Winner
  2. 2021-03-28Deep Purple - Shades Of Deep Purple (1968) (PBTHAL 24-96) FLAC
  3. 2021-03-28Skillshare - SQL Basics for beginners
  4. 2021-03-28Aprende programación orientada a objetos en C# con proyectos
  5. 2021-03-28Online Marketing Praxis - Einfach erklärt und umgesetzt!
  6. 2021-03-28Certified Lean Six Sigma Black Belt Training: LSSBB
  7. 2021-03-28Jethro Tull - Thick As A Brick (1972) (PBTHAL LP 24-96) FLAC
  8. 2021-03-28All About PDF Business Platinum 3.1067
  9. 2021-03-28App Builder 2021.35 (x64)
  10. 2021-03-28BodyWeight Athletic Training Guide V1.0
  11. 2021-03-28DroneViewer 1.2.4
  12. 2021-03-28Valentina Studio Pro 11.2.1
  13. 2021-03-28How to Workout: Simple and effective principles on how to exercise in the traditional gym
  14. 2021-03-28Raw Energy in a Glass: 126 Nutrition-Packed Smoothies, Green Drinks, and Other Satisfying Raw Beverages to Boost Your Well Being
  15. 2021-03-28Harrow S03E08 720p HEVC x265-MeGusta
  16. 2021-03-28The Carnivore Cookbook by Maria Emmerich and Craig Emmerich
  17. 2021-03-28Crossfire 1947 1080p BluRay x265-RARBG
  18. 2021-03-28Ten Little Indians 1965 1080p BluRay x265-RARBG
  19. 2021-03-28Back of the Net 2019 1080p WEBRip x265-RARBG
  20. 2021-03-28Stray 2020 TURKISH 1080p BluRay x265-VXT
  21. 2021-03-28The Reckless Age 1924 1080p BluRay x265-RARBG
  22. 2021-03-28Lucid Dreams 2018 CHINESE 1080p BluRay x265-VXT
  23. 2021-03-28Home of the Giants 2007 1080p BluRay x265-RARBG
  24. 2021-03-28Take-Away Romance 2014 FRENCH 1080p BluRay x265-VXT
  25. 2021-03-28Doraemon Nobitas New Dinosaur 2020 JAPANESE 1080p BluRay x265-VXT
  26. 2021-03-2825000 Miles to Glory 2015 1080p BluRay x265-RARBG
  27. 2021-03-28First Love 1978 ITALIAN 1080p BluRay x265-VXT
  28. 2021-03-28Double Game 1977 DUBBED 1080p BluRay x265-RARBG
  29. 2021-03-28Chutney Recipes: Top 50 Most Delicious Chutneys
  30. 2021-03-28South 2020 1080p WEBRip x265-RARBG
  31. 2021-03-28Double Game 1977 ITALIAN 1080p BluRay x265-VXT
  32. 2021-03-28Sean Banan 2012 SWEDISH 1080p WEBRip x265-VXT
  33. 2021-03-28Seeking Temporary Wife 2003 SWEDISH 1080p WEBRip x265-VXT
  34. 2021-03-28Interference Democracy at Risk 2020 1080p WEBRip x265-RARBG
  35. 2021-03-28Scenes From A Celebrity Life 2009 SWEDISH 1080p WEBRip x265-VXT
  36. 2021-03-28Audition 2021 1080p WEBRip x265-RARBG
  37. 2021-03-28Dead Womans Hollow 2013 1080p WEBRip x265-RARBG
  38. 2021-03-28Father Rupert Mayer 2014 1080p WEBRip x265-RARBG
  39. 2021-03-28U2 Go Home Fontaines D C Live At Kilmainham Jail Ireland 2021 720p WEB h264-TREBLE
  40. 2021-03-28U2 Go Home Fontaines D C Live At Kilmainham Jail Ireland 2021 1080p WEB h264-TREBLE
  41. 2021-03-28Castle 2009 S04E04 1080p HEVC x265-MeGusta
  42. 2021-03-28Harrow S03E08 1080p HEVC x265-MeGusta
  43. 2021-03-28The 10 X Rule with Cardone University
  44. 2021-03-28Freedom Ticket 2.0 by Kevin King - Removed
  45. 2021-03-28Inspiration from Grant with Cardone University
  46. 2021-03-28A Mother of No Destination 2021 1080p AMZN WEBRip DDP2 0 x264-NOGRP
  47. 2021-03-28Soul (2020) 720p BluRay x264-PiGNUS
  48. 2021-03-28Latin Lover 2015 ITALIAN 1080p BluRay x265-VXT
  49. 2021-03-28The El Duce Tapes 2019 1080p BluRay x265-RARBG
  50. 2021-03-28Trick Baby 1972 1080p BluRay x265-RARBG
  51. 2021-03-28Mushi-Shi The Movie 2007 JAPANESE 1080p BluRay x265-VXT
  52. 2021-03-28Wild Orchid 2 Two Shades Of Blue 1991 1080p WEBRip x265-RARBG
  53. 2021-03-28The Godfathers Of Hardcore 2017 1080p WEBRip x265-RARBG
  54. 2021-03-28Harrow S03E08 Alea Iacta Est 720p HEVC x265-MeGusta
  55. 2021-03-28In the Trap 2019 1080p BluRay x265-RARBG
  56. 2021-03-28Castle 2009 S04E05 1080p HEVC x265-MeGusta
  57. 2021-03-28Ride Tonight 1942 SWEDISH 1080p WEBRip x265-VXT
  58. 2021-03-28Saturday Night Live S46E15 1080p HEVC x265-MeGusta
  59. 2021-03-28Castle 2009 S04E06 1080p HEVC x265-MeGusta
  60. 2021-03-28Peas And Whiskers 1986 SWEDISH 1080p WEBRip x265-VXT
  61. 2021-03-28Tina 2021 1080p AMZN WEBRip DDP5 1 x264-MRCS
  62. 2021-03-28Barb and Star Go to Vista Del Mar (2021) 1080p BluRay x264 DTS-HD.MA.5.1-MT - Removed
  63. 2021-03-28Tina 2021 720p AMZN WEBRip DDP5 1 x264-MRCS
  64. 2021-03-28Castle 2009 S04E02 1080p HEVC x265-MeGusta
  65. 2021-03-28Castle 2009 S04E01 1080p HEVC x265-MeGusta
  66. 2021-03-28Castle 2009 S04E09 1080p HEVC x265-MeGusta
  67. 2021-03-28SQLite Expert Professional 5.4.3.516
  68. 2021-03-28Castle 2009 S04E10 1080p HEVC x265-MeGusta
  69. 2021-03-28Bob Dylan - Time Out Of Mind (1997) (PBTHAL LP 24-96) FLAC
  70. 2021-03-2815 Killings 2020 1080p BluRay x264-GETiT - Removed
  71. 2021-03-2815 Killings 2021 BRRip XviD AC3-EVO - Removed
  72. 2021-03-28Castle 2009 S04E12 1080p HEVC x265-MeGusta
  73. 2021-03-28Castle 2009 S04E16 1080p HEVC x265-MeGusta
  74. 2021-03-28Blondie - Parallel Lines (1978) (PBTHAL LP 24-96) FLAC
  75. 2021-03-28Castle 2009 S04E11 1080p HEVC x265-MeGusta
  76. 2021-03-2815 Killings 2020 720p BRRip XviD AC3-XVID - Removed
  77. 2021-03-28A Mother of No Destination 2021 1080p WEBRip x264-RARBG
  78. 2021-03-28Castle 2009 S04E14 1080p HEVC x265-MeGusta
  79. 2021-03-28Shawn Mendes Live in Concert 2020 1080p WEB x264-LiQUiD
  80. 2021-03-28Contracts Management in Construction Projects
  81. 2021-03-28Castle 2009 S04E07 1080p HEVC x265-MeGusta
  82. 2021-03-28Instrumentation Detailed Engineering : 2
  83. 2021-03-28CompTIA Pentest
  84. 2021-03-2815 Killings 2020 1080p BluRay H264 AAC-RARBG
  85. 2021-03-28Soundop Audio Editor 1.7.10.0
  86. 2021-03-28Castle 2009 S04E22 1080p HEVC x265-MeGusta
  87. 2021-03-28The Cambridge Companion to Epicureanism
  88. 2021-03-28Jazz Piano School
  89. 2021-03-28Log Horizon S03E11 720p HEVC x265-MeGusta
  90. 2021-03-28Castle 2009 S05E01 1080p HEVC x265-MeGusta
  91. 2021-03-28HTML & CSS JumpStart
  92. 2021-03-28Detail Design of Solar PV system
  93. 2021-03-28Complete Website Creation Mastery using WordPress & Elementor
  94. 2021-03-28Entropic Affirmation: On the Origins of Conflict in Change, Death, and Otherness
  95. 2021-03-28Neil Young Crazy Horse - Live Rust (1979) PBTHAL LP 24-96 FLAC

More eBooks ...

54423 pages, 5442273 eBooks in total, list all pages->

Search free ebooks in ebookee.com!
Back to Top